Goodland, KS

8:58 PM MDT on August 22, 2017 (GMT -0600)
Renner-Goodland Municipal

Weather History for KGLD - January, 2013

Change the Weather History Date:

Wednesday, January 2, 2013

  Actual Average Record
Temperature  
Mean Temperature 22 °F 30 °F  
Max Temperature 32 °F 42 °F 71 °F (1997)
Min Temperature 12 °F 17 °F -13 °F (1919)
Degree Days  
Heating Degree Days 43 36  
Month to date heating degree days 92 72  
Since 1 July heating degree days 2360 2479  
Cooling Degree Days 0 0  
Month to date cooling degree days 0 0  
Year to date cooling degree days 0 0  
Moisture  
Dew Point 16 °F    
Average Humidity 73    
Maximum Humidity 88    
Minimum Humidity 58    
Precipitation  
Precipitation 0.01 in 0.01 in 0.27 in (1971)
Month to date precipitation 0.01 0.02  
Year to date precipitation 0.01 0.02  
Snow  
Snow 0.20 in 0.20 in - ()
Month to date snowfall 0.3 0.4  
Since 1 July snowfall 10.3 13.1  
Snow Depth 1.00 in    
Sea Level Pressure  
Sea Level Pressure 30.26 in    
Wind  
Wind Speed 15 mph (NW)    
Max Wind Speed 25 mph    
Max Gust Speed 30 mph    
Visibility 9 miles    
Events Snow    
T = Trace of Precipitation, MM = Missing Value Source: NWS Daily Summary

Daily Weather History Graph

Daily Weather History Graph

Search for Another Location

Airport or City:

Trip Planner

Search our weather history database for the weather conditions in past years. The results will help you decide how hot, cold, wet, or windy it might be!

Date:

Astronomy

Jan. 02, 2013 Rise Set
Actual Time 7:06 AM MST 4:35 PM MST
Civil Twilight 6:36 AM MST 5:05 PM MST
Nautical Twilight 6:03 AM MST 5:38 PM MST
Astronomical Twilight 5:30 AM MST 6:11 PM MST
Moon 10:07 PM MST (1/2) 9:51 AM MST (1/2)
Length of Visible Light 10h 28m
Length of Day
9h 28m
Waning Gibbous, 74% of the Moon is Illuminated
Jan 2
Waning Gibbous
Jan 4
Last Quarter
Jan 11
New
Jan 18
First Quarter
Jan 26
Full

Hourly Weather History & Observations

Time (MST) Temp. Windchill Dew Point Humidity Pressure Visibility Wind Dir Wind Speed Gust Speed Precip Events Conditions
12:53 AM 12.0 °F -4.0 °F 3.9 °F 70% 30.22 in 10.0 mi West 15.0 mph - N/A   Clear
1:53 AM 18.0 °F 3.1 °F 8.1 °F 65% 30.22 in 10.0 mi WNW 16.1 mph - N/A   Mostly Cloudy
2:53 AM 21.9 °F 7.8 °F 12.9 °F 68% 30.21 in 10.0 mi WNW 17.3 mph - N/A   Overcast
3:53 AM 23.0 °F 10.6 °F 16.0 °F 74% 30.21 in 10.0 mi WNW 13.8 mph - N/A   Overcast
4:53 AM 23.0 °F 9.2 °F 16.0 °F 74% 30.22 in 10.0 mi WNW 17.3 mph - N/A   Clear
5:53 AM 25.0 °F 11.7 °F 19.0 °F 78% 30.23 in 8.0 mi NW 17.3 mph - 0.00 in Snow Light Snow
6:22 AM 24.8 °F 10.7 °F 17.6 °F 74% 30.11 in 10.0 mi WNW 19.6 mph - 0.00 in   Overcast
6:53 AM 25.0 °F 10.9 °F 19.0 °F 78% 30.25 in 7.0 mi NW 19.6 mph - 0.00 in Snow Light Snow
7:10 AM 26.6 °F 13.1 °F 21.2 °F 80% 30.13 in 2.5 mi NW 19.6 mph 27.6 mph 0.00 in Snow Light Snow
7:25 AM 24.8 °F 10.3 °F 21.2 °F 86% 30.14 in 1.5 mi NW 20.7 mph 27.6 mph 0.00 in Snow Light Snow
7:53 AM 25.0 °F 10.9 °F 21.9 °F 88% 30.28 in 1.8 mi NW 19.6 mph - 0.00 in Snow Light Snow
8:53 AM 27.0 °F 14.7 °F 23.0 °F 85% 30.30 in 1.5 mi NW 16.1 mph - 0.00 in Snow Light Snow
9:06 AM 26.6 °F 15.2 °F 23.0 °F 86% 30.18 in 3.0 mi NW 13.8 mph - 0.00 in Snow Light Snow
9:14 AM 26.6 °F 14.7 °F 21.2 °F 80% 30.18 in 9.0 mi NW 15.0 mph - 0.00 in   Mostly Cloudy
9:53 AM 28.0 °F 16.1 °F 21.0 °F 75% 30.30 in 10.0 mi NW 16.1 mph 23.0 mph 0.00 in   Mostly Cloudy
10:53 AM 30.9 °F 18.4 °F 21.0 °F 67% 30.28 in 10.0 mi NW 20.7 mph 26.5 mph N/A   Mostly Cloudy
11:53 AM 32.0 °F 20.8 °F 19.9 °F 61% 30.25 in 10.0 mi NW 17.3 mph 29.9 mph N/A   Clear
12:53 PM 32.0 °F 20.1 °F 19.0 °F 59% 30.25 in 10.0 mi NW 19.6 mph 26.5 mph N/A   Clear
1:53 PM 32.0 °F 20.5 °F 19.9 °F 61% 30.24 in 10.0 mi NW 18.4 mph - N/A   Clear
2:53 PM 32.0 °F 23.0 °F 19.9 °F 61% 30.24 in 10.0 mi NW 11.5 mph - N/A   Clear
3:53 PM 30.2 °F 20.8 °F 17.6 °F 60% 30.16 in 10.0 mi NW 11.5 mph - N/A   Clear
4:53 PM 21.9 °F 11.0 °F 14.0 °F 72% 30.30 in 10.0 mi NW 10.4 mph - N/A   Clear
5:53 PM 18.0 °F 6.1 °F 10.9 °F 74% 30.32 in 10.0 mi West 10.4 mph - N/A   Clear
6:53 PM 19.9 °F 7.3 °F 10.9 °F 68% 30.34 in 10.0 mi WNW 12.7 mph - N/A   Clear
7:53 PM 17.1 °F 3.0 °F 9.0 °F 71% 30.35 in 10.0 mi West 13.8 mph - N/A   Clear
8:53 PM 18.0 °F 6.1 °F 9.0 °F 68% 30.33 in 10.0 mi NW 10.4 mph - N/A   Scattered Clouds
9:53 PM 14.0 °F -0.2 °F 7.0 °F 74% 30.36 in 10.0 mi West 12.7 mph - N/A   Clear
10:53 PM 18.0 °F 6.1 °F 10.9 °F 74% 30.39 in 10.0 mi NW 10.4 mph - N/A   Overcast
11:23 PM 17.6 °F 5.0 °F 10.4 °F 73% 30.29 in 10.0 mi NW 11.5 mph - N/A   Mostly Cloudy
11:53 PM 15.1 °F 2.5 °F 9.0 °F 77% 30.40 in 10.0 mi WNW 10.4 mph - N/A   Mostly Cloudy